GW6243 Weather Reports


time (UTC)temp
F
wind
direction
speed
knots
gust
knots
rain 1hr
in
rain 24hr
in
rain mn
in
humidity
%
barometer
mb
20260510104526 65 63 0.9 1.7 0.00 0.79 0.00 96 1015.1
20260510103028 65 9 0.9 1.7 0.00 0.79 0.00 96 1015.1
20260510101529 65 57 0.9 1.7 0.00 0.79 0.00 95 1014.9
20260510100025 65 32 0.9 0.9 0.00 0.79 0.00 95 1014.7
20260510094527 65 107 0.0 0.9 0.00 0.79 0.00 95 1014.7
20260510093029 65 13 0.0 0.0 0.00 0.79 0.00 94 1014.4
20260510091534 66 217 0.0 0.9 0.00 0.79 0.00 94 1014.8
20260510090025 66 196 0.0 0.9 0.00 0.79 0.00 94 1014.8
20260510084523 66 118 0.9 2.6 0.00 0.79 0.00 94 1014.7
20260510083026 66 160 0.9 1.7 0.00 0.79 0.00 94 1014.7
20260510081526 66 174 0.0 1.7 0.00 0.79 0.00 93 1014.4
20260510080016 66 80 0.0 0.9 0.00 0.79 0.00 93 1014.2
20260510074522 65 160 0.0 0.9 0.00 0.79 0.00 94 1014.2
20260510073025 65 104 0.0 0.9 0.00 0.79 0.00 94 1014.0
20260510071508 65 84 0.9 1.7 0.00 0.79 0.00 95 1014.0
20260510070016 66 209 0.9 2.6 0.00 0.79 0.00 95 1014.0
20260510064530 65 168 0.0 1.7 0.00 0.79 0.00 94 1014.0
20260510063024 65 139 0.0 2.6 0.00 0.79 0.00 94 1013.9
20260510061528 65 157 0.9 2.6 0.00 0.79 0.00 95 1013.8
20260510060012 65 74 0.0 0.9 0.00 0.79 0.00 95 1013.6
20260510054515 65 33 0.9 0.9 0.00 0.79 0.00 96 1013.8
20260510053025 65 25 0.0 2.6 0.00 0.79 0.00 95 1013.8
20260510051526 65 72 0.0 1.7 0.00 0.79 0.00 94 1013.8
20260510050027 65 107 0.9 1.7 0.00 0.79 0.00 93 1013.9
20260510044516 65 113 1.7 2.6 0.00 0.79 0.79 94 1014.2
20260510043020 65 105 1.7 1.7 0.00 0.79 0.79 95 1014.2
20260510041525 66 65 0.0 1.7 0.00 0.79 0.79 94 1014.3
20260510040026 66 57 0.0 0.9 0.00 0.79 0.79 94 1014.5
20260510034529 66 153 0.0 1.7 0.00 0.79 0.79 93 1014.9
20260510033022 65 203 0.0 1.7 0.00 0.79 0.79 94 1014.4
20260510031520 66 94 1.7 2.6 0.00 0.79 0.79 95 1014.1
20260510030027 66 243 0.0 1.7 0.00 0.79 0.79 94 1014.9
20260510024529 66 72 0.9 2.6 0.00 0.79 0.79 92 1014.3
20260510023032 67 119 0.0 1.7 0.00 0.79 0.79 92 1014.5
20260510021525 66 214 0.0 1.7 0.00 0.79 0.79 93 1014.6
20260510020024 66 177 0.0 1.7 0.00 0.79 0.79 93 1014.3
20260510014526 66 308 0.9 1.7 0.00 0.79 0.79 93 1014.1
20260510013029 67 39 1.7 1.7 0.00 0.79 0.79 91 1014.1
20260510011528 67 161 0.0 2.6 0.00 0.79 0.79 90 1013.9
20260510010020 67 272 0.0 0.0 0.00 0.79 0.79 91 1013.9
20260510004524 67 299 1.7 2.6 0.00 0.79 0.79 91 1013.9
20260510003026 67 301 1.7 3.5 0.00 0.79 0.79 91 1013.7
20260510001528 68 217 0.9 2.6 0.00 0.79 0.79 88 1013.4
20260510000016 68 210 1.7 2.6 0.00 0.79 0.79 88 1013.2
20260509234536 68 153 0.9 2.6 0.00 0.79 0.79 89 1013.0
20260509233026 68 221 0.9 2.6 0.00 0.79 0.79 89 1013.4
20260509231528 69 179 1.7 2.6 0.00 0.79 0.79 89 1013.1
20260509230031 69 144 0.9 2.6 0.00 0.79 0.79 87 1012.9
20260509224530 70 176 0.9 1.7 0.00 0.79 0.79 85 1013.1
20260509223004 69 214 0.0 1.7 0.00 0.79 0.79 86 1013.0
20260509221507 69 205 0.0 2.6 0.00 0.79 0.79 87 1012.8
20260509220011 68 248 0.0 1.7 0.00 0.81 0.79 88 1012.4
20260509214519 68 124 0.9 2.6 0.00 0.81 0.79 89 1012.3
20260509213023 69 208 0.9 1.7 0.00 0.82 0.79 88 1012.2
20260509211508 68 231 0.9 2.6 0.00 0.83 0.79 88 1012.4
20260509210008 69 188 0.0 2.6 0.00 0.86 0.79 87 1012.3
20260509204513 68 190 1.7 3.5 0.00 0.93 0.79 89 1012.8
20260509203018 67 196 2.6 6.1 0.00 0.98 0.79 89 1012.8
20260509201524 67 201 2.6 5.2 0.00 1.04 0.79 89 1012.8
20260509200007 68 206 1.7 6.1 0.00 1.08 0.79 90 1012.7
20260509194510 68 233 1.7 5.2 0.00 1.12 0.79 88 1012.7
20260509193018 68 231 2.6 4.3 0.00 1.15 0.79 87 1012.9
20260509191523 68 269 3.5 6.1 0.00 1.17 0.79 88 1013.0
20260509190029 68 252 1.7 6.1 0.00 1.20 0.79 89 1012.8
20260509184518 67 233 1.7 6.1 0.00 1.21 0.79 90 1013.1
20260509183013 67 131 1.7 7.0 0.00 1.23 0.79 90 1013.0
20260509181517 68 163 1.7 6.1 0.00 1.25 0.79 90 1012.8
20260509180027 68 207 2.6 3.5 0.00 1.26 0.79 88 1012.6
20260509174507 67 298 0.9 2.6 0.00 1.27 0.79 90 1012.6
20260509173015 67 222 1.7 2.6 0.00 1.31 0.79 91 1013.0
20260509171518 67 220 0.0 1.7 0.00 1.33 0.79 90 1013.0
20260509170039 67 191 0.9 2.6 0.00 1.36 0.79 91 1013.5
20260509164527 67 83 1.7 3.5 0.00 1.38 0.79 92 1013.8
20260509163014 67 143 0.0 2.6 0.00 1.40 0.79 92 1014.2
20260509161513 65 290 0.9 0.9 0.00 1.42 0.79 92 1014.0
20260509160020 66 221 0.0 1.7 0.00 1.44 0.79 92 1013.6
20260509154524 65 129 0.0 0.9 0.00 1.44 0.79 93 1013.3
20260509153031 64 282 0.0 1.7 0.00 1.44 0.79 95 1013.5
20260509151510 64 148 0.0 0.0 0.02 1.44 0.79 94 1013.3
20260509150016 64 52 0.0 2.6 0.08 1.44 0.79 94 1013.0
20260509144520 63 119 3.5 8.7 0.13 1.44 0.79 95 1013.1
20260509143025 63 110 4.3 10.4 0.20 1.44 0.79 96 1012.9
20260509141539 63 134 1.7 9.6 0.24 1.42 0.77 96 1013.1
20260509140015 63 181 5.2 7.8 0.22 1.36 0.71 96 1012.7
20260509134529 64 158 2.6 7.0 0.21 1.31 0.66 96 1013.3
20260509133024 64 174 3.5 6.1 0.19 1.24 0.58 95 1013.6
20260509131507 64 146 0.9 2.6 0.18 1.17 0.52 95 1014.1
20260509130012 64 71 2.6 4.3 0.18 1.14 0.49 96 1014.3
20260509124517 63 323 3.5 5.2 0.18 1.10 0.45 96 1014.3
20260509123024 63 255 1.7 3.5 0.37 1.04 0.40 96 1015.0
20260509121528 63 10 1.7 5.2 0.33 1.00 0.35 96 1014.0
20260509120018 63 347 4.3 10.4 0.30 0.96 0.31 96 1014.1
20260509114514 63 4 7.0 13.0 0.27 0.92 0.27 96 1014.3
20260509113028 64 319 7.8 13.0 0.03 0.68 0.03 97 1014.5
20260509111521 64 315 0.9 1.7 0.02 0.67 0.02 97 1012.2
20260509110008 63 134 0.9 2.6 0.01 0.66 0.01 97 1011.7